Volver al catálogo

STARLINK-31880

ActivoComunicacionesVLEO
NORAD 59661·PAYLOAD·🇺🇸 United States

Lanzado May 6, 2024 desde Cape Canaveral Space Force Station

Loading…

Próximos Pases (próximas 24 horas)

TLE

ActualizadoSource: CelesTrak SupGP

Época: Sep 15, 2026, 02:03 UTC

1 59661C 24084H   26258.08590278 -.00026306  00000+0 -95263-3 0  2581
2 59661  43.0008  48.5857 0001451 268.5663 338.9938 15.27597250    15

Sigue STARLINK-31880 en tiempo real con AllMySat

Download on the App Store